Szeged, Hungary

9:29 AM CET on January 17, 2018 (GMT +0100)
Szeged

Weather History for LHUD - October, 2013

Change the Weather History Date:

Friday, October 11, 2013

  Actual Average (LRAR) Record (LRAR)
Temperature  
Mean Temperature 62 °F -  
Max Temperature 72 °F 58 °F 77 °F (2013)
Min Temperature 52 °F 39 °F 37 °F (2010)
Degree Days  
Heating Degree Days 3    
Growing Degree Days 12 (Base 50)    
Moisture  
Dew Point 53 °F    
Average Humidity 72    
Maximum Humidity 94    
Minimum Humidity 49    
Precipitation  
Precipitation 0.00 in 0.04 in - ()
Sea Level Pressure  
Sea Level Pressure 29.98 in    
Wind  
Wind Speed 10 mph ()    
Max Wind Speed 17 mph    
Max Gust Speed -    
Visibility 5.5 miles    
Events      
Averages and records for this station are not official NWS values.
T = Trace of Precipitation, MM = Missing Value Source: Averaged Metar Reports

Daily Weather History Graph

Daily Weather History Graph

Search for Another Location

Airport or City:

Trip Planner

Search our weather history database for the weather conditions in past years. The results will help you decide how hot, cold, wet, or windy it might be!

Date:

Astronomy

Oct. 11, 2013 Rise Set
Actual Time 6:51 AM CEST 6:00 PM CEST
Civil Twilight 6:21 AM CEST 6:30 PM CEST
Nautical Twilight 5:46 AM CEST 7:05 PM CEST
Astronomical Twilight 5:11 AM CEST 7:40 PM CEST
Moon 1:29 PM CEST (10/11) 11:14 PM CEST (10/11)
Length of Visible Light 12h 09m
Length of Day
11h 09m
Waxing Crescent, 44% of the Moon is Illuminated
Oct 11
Waxing Crescent
Oct 12
First Quarter
Oct 19
Full
Oct 27
Last Quarter
Nov 3
New

Hourly Weather History & Observations

Time (CEST) Temp. Dew Point Humidity Pressure Visibility Wind Dir Wind Speed Gust Speed Precip Events Conditions
12:45 AM 53.6 °F 50.0 °F 88% 29.95 in - ESE 9.2 mph - N/A   Clear
1:45 AM 53.6 °F 50.0 °F 88% 29.95 in 5.0 mi ESE 10.4 mph - N/A   Unknown
2:00 AM 54 °F 50 °F 81% 29.95 in 5 mi ESE 8.9 mph - -   Partly Cloudy
2:45 AM 53.6 °F 50.0 °F 88% 29.95 in 5.0 mi SE 10.4 mph - N/A   Unknown
3:45 AM 53.6 °F 50.0 °F 88% 29.95 in 5.0 mi SE 12.7 mph - N/A   Unknown
4:45 AM 51.8 °F 50.0 °F 94% 29.95 in 5.0 mi SE 10.4 mph - N/A   Unknown
5:45 AM 51.8 °F 50.0 °F 94% 29.95 in 5.0 mi SE 12.7 mph - N/A   Unknown
6:15 AM 53.6 °F 50.0 °F 88% 29.95 in 3.7 mi ESE 12.7 mph - N/A   Partly Cloudy
6:45 AM 53.6 °F 48.2 °F 82% 29.95 in 3.7 mi ESE 11.5 mph - N/A   Partly Cloudy
7:15 AM 53.6 °F 50.0 °F 88% 29.95 in 3.7 mi ESE 12.7 mph - N/A   Partly Cloudy
7:45 AM 53.6 °F 50.0 °F 88% 29.98 in 3.7 mi ESE 10.4 mph - N/A   Partly Cloudy
8:00 AM 54 °F 49 °F 79% 29.97 in 4 mi ESE 11.2 mph - -   Partly Cloudy
8:15 AM 55.4 °F 50.0 °F 82% 29.98 in 4.3 mi SE 11.5 mph - N/A   Partly Cloudy
8:45 AM 57.2 °F 51.8 °F 82% 29.98 in 4.3 mi SE 12.7 mph - N/A   Partly Cloudy
9:15 AM 60.8 °F 51.8 °F 72% 29.98 in 4.3 mi SE 15.0 mph - N/A   Partly Cloudy
9:45 AM 60.8 °F 53.6 °F 77% 29.98 in 5.0 mi SE 15.0 mph - N/A   Scattered Clouds
10:15 AM 64.4 °F 53.6 °F 68% 29.98 in - SE 16.1 mph - N/A   Clear
10:45 AM 64.4 °F 53.6 °F 68% 29.98 in 6.2 mi SE 15.0 mph - N/A   Scattered Clouds
11:15 AM 66.2 °F 55.4 °F 68% 29.98 in - SE 17.3 mph - N/A   Clear
11:45 AM 68.0 °F 55.4 °F 64% 29.98 in - SE 16.1 mph - N/A   Clear
12:15 PM 68.0 °F 53.6 °F 60% 29.98 in - SE 13.8 mph - N/A   Clear
12:45 PM 71.6 °F 55.4 °F 57% 29.98 in 6.2 mi SE 12.7 mph - N/A   Mostly Cloudy
1:15 PM 71.6 °F 55.4 °F 57% 29.98 in 6.2 mi SE 16.1 mph - N/A   Scattered Clouds
1:45 PM 69.8 °F 55.4 °F 60% 29.98 in 6.2 mi SE 11.5 mph - N/A   Scattered Clouds
2:00 PM 70 °F 55 °F 49% 29.97 in 7 mi SE 11.2 mph - -   Partly Cloudy
2:15 PM 71.6 °F 55.4 °F 57% 29.98 in 6.2 mi SE 13.8 mph - N/A   Scattered Clouds
2:45 PM 69.8 °F 55.4 °F 60% 29.98 in 6.2 mi SE 11.5 mph - N/A   Scattered Clouds
3:15 PM 69.8 °F 55.4 °F 60% 29.98 in 6.2 mi SE 12.7 mph - N/A   Scattered Clouds
3:45 PM 71.6 °F 55.4 °F 57% 29.98 in 6.2 mi SE 10.4 mph - N/A   Scattered Clouds
4:15 PM 71.6 °F 55.4 °F 57% 29.98 in 6.2 mi SE 11.5 mph - N/A   Scattered Clouds
4:45 PM 71.6 °F 55.4 °F 57% 29.98 in 6.2 mi SE 10.4 mph - N/A   Scattered Clouds
5:15 PM 69.8 °F 55.4 °F 60% 29.98 in - SE 9.2 mph - N/A   Clear
5:45 PM 68.0 °F 55.4 °F 64% 29.98 in - SE 6.9 mph - N/A   Clear
6:15 PM 66.2 °F 55.4 °F 68% 30.01 in - ESE 5.8 mph - N/A   Clear
6:45 PM 66.2 °F 55.4 °F 68% 30.01 in - ESE 6.9 mph - N/A   Clear
7:15 PM 64.4 °F 55.4 °F 73% 30.01 in - ESE 5.8 mph - N/A   Clear
7:45 PM 66.2 °F 55.4 °F 68% 30.01 in - ESE 6.9 mph - N/A   Clear
8:00 PM 65 °F 54 °F 60% 30.01 in 12 mi ESE 6.7 mph - -   Partly Cloudy
8:15 PM 64.4 °F 53.6 °F 68% 30.01 in - SE 8.1 mph - N/A   Clear
8:45 PM 62.6 °F 53.6 °F 72% 30.01 in - SE 8.1 mph - N/A   Clear
9:15 PM 62.6 °F 53.6 °F 72% 30.04 in - SE 9.2 mph - N/A   Clear
9:45 PM 62.6 °F 53.6 °F 72% 30.04 in - SE 9.2 mph - N/A   Clear
10:45 PM 59.0 °F 53.6 °F 82% 30.06 in - South 1.2 mph - N/A   Clear
11:45 PM 59.0 °F 53.6 °F 82% 30.06 in - SE 6.9 mph - N/A   Clear